This is the latest recevied weather packets stored in our database for station/object W4FXD. If no packets are shown the sender has not sent any weather packets the latest 1 day(s).
| Time | Temp. | Humidity | Pressure | Rain* | Wind** | Luminosity | Snow |
|---|---|---|---|---|---|---|---|
| 1778030268 | 21.67° C | 48% | 1011 hPa | 0 mm | 0.45 m/s, 146° | 0 W/m² | - |
| 1778029964 | 21.67° C | 47% | 1010.7 hPa | 0 mm | 0.45 m/s, 357° | 0 W/m² | - |
| 1778029663 | 22.22° C | 47% | 1010.8 hPa | 0 mm | 0.45 m/s, 116° | 0 W/m² | - |
| 1778029359 | 21.67° C | 47% | 1010.8 hPa | 0 mm | 0.89 m/s, 90° | 0 W/m² | - |
| 1778029057 | 21.67° C | 47% | 1010.8 hPa | 0 mm | 0.89 m/s, 188° | 0 W/m² | - |
| 1778028753 | 22.22° C | 46% | 1010.7 hPa | 0 mm | 0.89 m/s, 183° | 0 W/m² | - |
| 1778028449 | 22.22° C | 45% | 1010.9 hPa | 0 mm | 0.89 m/s, 151° | 0 W/m² | - |
| 1778028147 | 22.22° C | 46% | 1010.6 hPa | 0 mm | 0.45 m/s, 204° | 0 W/m² | - |
| 1778027843 | 22.22° C | 46% | 1010.8 hPa | 0 mm | 0 m/s | 0 W/m² | - |
| 1778027540 | 22.22° C | 45% | 1011.2 hPa | 0 mm | 0.89 m/s, 173° | 0 W/m² | - |
| 1778027235 | 22.22° C | 45% | 1011.5 hPa | 0 mm | 0.45 m/s, 147° | 0 W/m² | - |
| 1778026932 | 22.22° C | 45% | 1011.4 hPa | 0 mm | 0.89 m/s, 232° | 1 W/m² | - |
| 1778026628 | 22.22° C | 45% | 1011.3 hPa | 0 mm | 0.45 m/s, 151° | 3 W/m² | - |
| 1778026325 | 22.78° C | 45% | 1011.3 hPa | 0 mm | 1.34 m/s, 196° | 5 W/m² | - |
| 1778026022 | 22.78° C | 45% | 1011.4 hPa | 0 mm | 0.89 m/s, 198° | 7 W/m² | - |
| 1778025720 | 22.78° C | 45% | 1011.4 hPa | 0 mm | 0.45 m/s, 184° | 7 W/m² | - |
| 1778025417 | 22.78° C | 45% | 1011.3 hPa | 0 mm | 1.34 m/s, 180° | 11 W/m² | - |
| 1778025115 | 22.78° C | 45% | 1011.5 hPa | 0 mm | 1.79 m/s, 181° | 16 W/m² | - |
| 1778024811 | 22.78° C | 46% | 1011.3 hPa | 0 mm | 0.89 m/s, 243° | 19 W/m² | - |
| 1778024508 | 22.78° C | 48% | 1011.3 hPa | 0 mm | 0.45 m/s, 152° | 22 W/m² | - |
| 1778024205 | 22.78° C | 47% | 1011.1 hPa | 0 mm | 0.45 m/s, 168° | 20 W/m² | - |
| 1778023903 | 23.33° C | 47% | 1010.8 hPa | 0 mm | 0.45 m/s, 111° | 24 W/m² | - |
| 1778023600 | 23.33° C | 48% | 1011 hPa | 0 mm | 0.89 m/s, 189° | 39 W/m² | - |
| 1778023298 | 23.33° C | 48% | 1011.1 hPa | 0 mm | 0.89 m/s, 193° | 55 W/m² | - |
| 1778022994 | 23.33° C | 48% | 1011 hPa | 0 mm | 0.89 m/s, 179° | 55 W/m² | - |
* Rain latest hour (hover to see other rain measurements)
** Current wind speed in m/s (hover to see current wind gust speed)